Weather History for KBKN - November, 2012

Change the Weather History Date:

Wednesday, November 28, 2012

  Actual Average (KPNC) Record (KPNC)
Temperature  
Mean Temperature 42 °F -  
Max Temperature 59 °F 52 °F 79 °F (1949)
Min Temperature 26 °F 30 °F 12 °F (1952)
Degree Days  
Heating Degree Days 22    
Moisture  
Dew Point 29 °F    
Average Humidity 62    
Maximum Humidity 86    
Minimum Humidity 36    
Precipitation  
Precipitation 0.00 in - - ()
Sea Level Pressure  
Sea Level Pressure 30.27 in    
Wind  
Wind Speed 6 mph (SE)    
Max Wind Speed 16 mph    
Max Gust Speed 22 mph    
Visibility 10 miles    
Events      
Averages and records for this station are not official NWS values.
T = Trace of Precipitation, MM = Missing Value Source: NWS Daily Summary

Daily Weather History Graph

Daily Weather History Graph

Search for Another Location

Airport or City:

Trip Planner

Search our weather history database for the weather conditions in past years. The results will help you decide how hot, cold, wet, or windy it might be!

Date:

Astronomy

Nov. 28, 2012 Rise Set
Actual Time 7:21 AM CST 5:13 PM CST
Civil Twilight 6:52 AM CST 5:42 PM CST
Nautical Twilight 6:20 AM CST 6:14 PM CST
Astronomical Twilight 5:49 AM CST 6:45 PM CST
Moon 5:30 PM CST (11/28) 7:19 AM CST (11/28)
Length of Visible Light 10h 49m
Length of Day
9h 52m
Full, 100% of the Moon is Illuminated
Nov 28
Full
Dec 6
Last Quarter
Dec 13
New
Dec 19
First Quarter
Dec 28
Full

Hourly Weather History & Observations

Time (CST) Temp. Windchill Dew Point Humidity Pressure Visibility Wind Dir Wind Speed Gust Speed Precip Events Conditions
12:15 AM 28.4 °F 22.2 °F 21.2 °F 74% 30.32 in 10.0 mi East 5.8 mph - N/A   Clear
12:35 AM 28.4 °F 23.3 °F 23.0 °F 80% 30.32 in 10.0 mi ESE 4.6 mph - N/A   Clear
12:55 AM 28.4 °F 23.3 °F 23.0 °F 80% 30.32 in 10.0 mi East 4.6 mph - N/A   Clear
1:15 AM 28.4 °F - 21.2 °F 74% 30.32 in 10.0 mi Calm Calm - N/A   Clear
1:35 AM 28.4 °F 23.3 °F 21.2 °F 74% 30.32 in 10.0 mi East 4.6 mph - N/A   Clear
1:55 AM 28.4 °F 24.6 °F 23.0 °F 80% 30.32 in 10.0 mi ESE 3.5 mph - N/A   Clear
2:15 AM 28.4 °F 24.6 °F 23.0 °F 80% 30.32 in 10.0 mi East 3.5 mph - N/A   Clear
2:55 AM 28.4 °F 23.3 °F 23.0 °F 80% 30.32 in 10.0 mi ESE 4.6 mph - N/A   Clear
3:15 AM 26.6 °F 22.6 °F 21.2 °F 80% 30.32 in 10.0 mi ESE 3.5 mph - N/A   Clear
3:35 AM 26.6 °F 22.6 °F 23.0 °F 86% 30.32 in 10.0 mi East 3.5 mph - N/A   Clear
3:55 AM 28.4 °F 24.6 °F 23.0 °F 80% 30.32 in 10.0 mi ESE 3.5 mph - N/A   Clear
4:15 AM 28.4 °F 24.6 °F 23.0 °F 80% 30.32 in 10.0 mi ESE 3.5 mph - N/A   Clear
4:35 AM 26.6 °F 21.2 °F 23.0 °F 86% 30.32 in 10.0 mi East 4.6 mph - N/A   Clear
4:55 AM 26.6 °F 21.2 °F 23.0 °F 86% 30.32 in 10.0 mi East 4.6 mph - N/A   Clear
5:15 AM 28.4 °F 24.6 °F 23.0 °F 80% 30.32 in 10.0 mi East 3.5 mph - N/A   Clear
5:35 AM 28.4 °F - 23.0 °F 80% 30.32 in 10.0 mi Calm Calm - N/A   Clear
5:55 AM 28.4 °F 24.6 °F 23.0 °F 80% 30.32 in 10.0 mi East 3.5 mph - N/A   Clear
6:15 AM 26.6 °F 21.2 °F 23.0 °F 86% 30.33 in 10.0 mi ENE 4.6 mph - N/A   Clear
6:35 AM 26.6 °F 20.0 °F 23.0 °F 86% 30.33 in 10.0 mi East 5.8 mph - N/A   Clear
6:55 AM 26.6 °F 21.2 °F 23.0 °F 86% 30.34 in 10.0 mi East 4.6 mph - N/A   Clear
7:15 AM 26.6 °F 22.6 °F 23.0 °F 86% 30.35 in 10.0 mi East 3.5 mph - N/A   Clear
7:35 AM 26.6 °F 21.2 °F 23.0 °F 86% 30.35 in 10.0 mi ESE 4.6 mph - N/A   Clear
7:55 AM 26.6 °F 21.2 °F 23.0 °F 86% 30.35 in 10.0 mi ESE 4.6 mph - N/A   Clear
8:15 AM 28.4 °F 23.3 °F 24.8 °F 86% 30.36 in 10.0 mi ESE 4.6 mph - N/A   Clear
8:35 AM 32.0 °F 28.7 °F 26.6 °F 80% 30.36 in 10.0 mi ESE 3.5 mph - N/A   Clear
8:55 AM 33.8 °F 29.6 °F 26.6 °F 75% 30.37 in 10.0 mi SE 4.6 mph - N/A   Clear
9:15 AM 37.4 °F 32.1 °F 28.4 °F 70% 30.37 in 10.0 mi SE 6.9 mph - N/A   Clear
9:35 AM 39.2 °F 34.2 °F 30.2 °F 70% 30.37 in 10.0 mi SSE 6.9 mph - N/A   Clear
9:55 AM 42.8 °F 37.5 °F 30.2 °F 61% 30.37 in 10.0 mi SE 9.2 mph - N/A   Clear
10:15 AM 44.6 °F 39.2 °F 32.0 °F 61% 30.36 in 10.0 mi SSE 10.4 mph - N/A   Clear
10:35 AM 46.4 °F 41.9 °F 32.0 °F 57% 30.36 in 10.0 mi SSE 9.2 mph - N/A   Clear
10:55 AM 48.2 °F - 32.0 °F 54% 30.35 in 10.0 mi SSE 11.5 mph - N/A   Clear
11:15 AM 50.0 °F - 32.0 °F 50% 30.35 in 10.0 mi SSE 11.5 mph - N/A   Clear
11:35 AM 51.8 °F - 32.0 °F 47% 30.33 in 10.0 mi SE 10.4 mph - N/A   Clear
11:55 AM 53.6 °F - 32.0 °F 44% 30.32 in 10.0 mi SSE 11.5 mph - N/A   Clear
12:15 PM 53.6 °F - 32.0 °F 44% 30.30 in 10.0 mi SSE 11.5 mph 17.3 mph N/A   Clear
12:35 PM 55.4 °F - 32.0 °F 41% 30.29 in 10.0 mi SE 11.5 mph 17.3 mph N/A   Clear
12:55 PM 55.4 °F - 32.0 °F 41% 30.28 in 10.0 mi SE 11.5 mph - N/A   Clear
1:15 PM 57.2 °F - 32.0 °F 38% 30.27 in 10.0 mi SE 12.7 mph - N/A   Clear
1:35 PM 57.2 °F - 32.0 °F 38% 30.26 in 10.0 mi SSE 11.5 mph 18.4 mph N/A   Clear
1:55 PM 59.0 °F - 32.0 °F 36% 30.24 in 10.0 mi SE 13.8 mph 21.9 mph N/A   Clear
2:15 PM 59.0 °F - 32.0 °F 36% 30.23 in 10.0 mi SSE 16.1 mph - N/A   Clear
2:35 PM 59.0 °F - 32.0 °F 36% 30.22 in 10.0 mi SSE 10.4 mph 16.1 mph N/A   Clear
2:55 PM 59.0 °F - 32.0 °F 36% 30.21 in 10.0 mi SSE 15.0 mph 20.7 mph N/A   Clear
3:15 PM 59.0 °F - 32.0 °F 36% 30.21 in 10.0 mi SSE 13.8 mph 18.4 mph N/A   Clear
3:35 PM 59.0 °F - 32.0 °F 36% 30.20 in 10.0 mi SSE 13.8 mph 20.7 mph N/A   Clear
3:55 PM 59.0 °F - 32.0 °F 36% 30.20 in 10.0 mi SE 12.7 mph - N/A   Clear
4:15 PM 59.0 °F - 32.0 °F 36% 30.19 in 10.0 mi SE 13.8 mph - N/A   Clear
4:35 PM 57.2 °F - 32.0 °F 38% 30.19 in 10.0 mi SE 12.7 mph - N/A   Clear
4:55 PM 57.2 °F - 32.0 °F 38% 30.18 in 10.0 mi SE 11.5 mph - N/A   Clear
5:15 PM 55.4 °F - 32.0 °F 41% 30.17 in 10.0 mi SE 10.4 mph - N/A   Clear
5:55 PM 50.0 °F - 32.0 °F 50% 30.18 in 10.0 mi ESE 6.9 mph - N/A   Clear
6:15 PM 50.0 °F - 32.0 °F 50% 30.19 in 10.0 mi ESE 6.9 mph - N/A   Clear
6:35 PM 48.2 °F - 32.0 °F 54% 30.19 in 10.0 mi ESE 6.9 mph - N/A   Clear
6:55 PM 48.2 °F - 32.0 °F 54% 30.18 in 10.0 mi SE 6.9 mph - N/A   Clear
7:15 PM 46.4 °F 42.4 °F 32.0 °F 57% 30.19 in 10.0 mi SE 8.1 mph - N/A   Partly Cloudy
7:55 PM 46.4 °F 42.4 °F 32.0 °F 57% 30.18 in 10.0 mi SE 8.1 mph - N/A   Scattered Clouds
8:15 PM 46.4 °F 41.9 °F 32.0 °F 57% 30.18 in 10.0 mi SE 9.2 mph - N/A   Partly Cloudy
8:35 PM 46.4 °F 42.4 °F 32.0 °F 57% 30.17 in 10.0 mi SE 8.1 mph - N/A   Clear
8:55 PM 46.4 °F 42.9 °F 32.0 °F 57% 30.16 in 10.0 mi SE 6.9 mph - N/A   Clear
9:15 PM 46.4 °F 42.4 °F 32.0 °F 57% 30.16 in 10.0 mi ESE 8.1 mph - N/A   Clear
9:35 PM 44.6 °F 40.7 °F 32.0 °F 61% 30.16 in 10.0 mi ESE 6.9 mph - N/A   Clear
9:55 PM 44.6 °F 40.7 °F 32.0 °F 61% 30.15 in 10.0 mi ESE 6.9 mph - N/A   Clear
10:15 PM 44.6 °F 40.7 °F 32.0 °F 61% 30.15 in 10.0 mi ESE 6.9 mph - N/A   Partly Cloudy
10:35 PM 42.8 °F 38.0 °F 32.0 °F 66% 30.14 in 10.0 mi ESE 8.1 mph - N/A   Scattered Clouds
10:55 PM 42.8 °F 38.0 °F 32.0 °F 66% 30.14 in 10.0 mi ESE 8.1 mph - N/A   Partly Cloudy
11:15 PM 42.8 °F 38.0 °F 32.0 °F 66% 30.13 in 10.0 mi SE 8.1 mph - N/A   Clear
11:35 PM 42.8 °F 38.0 °F 32.0 °F 66% 30.13 in 10.0 mi SE 8.1 mph - N/A   Partly Cloudy
11:55 PM 42.8 °F 37.5 °F 32.0 °F 66% 30.12 in 10.0 mi ESE 9.2 mph - N/A   Clear